Flag for U.S.A. Weather past 2 weeks in Paterson, New Jersey, U.S.A.

Now
77 °F

Scattered clouds.


Feels Like: 79 °F
Forecast: 64 / 80 °F
Wind: 7 mph from West

Location: Essex County Airport

Current Time: Jul 28, 2014 at 12:47:08 PM

Latest Report: Jul 28, 2014 at 11:53 AM


Visibility: 10 mi

Pressure: 29.56 "Hg

Humidity: 62%

Dew point: 63 °F

Location of PatersonLocation

Historic Weather in Paterson — Graph

°F

Paterson temperature yesterday

Maximum temperature yesterday: 87 °F (at 4:53 PM)
Minimum temperature yesterday: 69 °F (at 3:53 AM)
Average temperature yesterday: 77 °F

Past Weeks' High & Low Weather Summary

 TemperatureHumidityPressure
High90 °F (Jul 23, 3:53 PM)100% (Jul 14, 4:53 AM)30.27 "Hg (Jul 14, 4:53 AM)
Low58 °F (Jul 18, 4:53 AM)35% (Jul 17, 3:53 PM)29.55 "Hg (Jul 28, 4:53 AM)
Average74 °F71%29.98 "Hg
* Reported Jul 13 10:53 AM — Jul 28 10:53 AM, Paterson, Weather by CustomWeather, © 2014

Note: Actual official high and low records may vary slightly from our data, if they occured in-between our weather recording intervals... More about our weather records

Advertising

Paterson weather history for previous 24 hours

 ConditionsComfort  
Time TempWeatherWind HumidityBarometerVisibility
10:53 AM
Jul 28
73 °FOvercast.3 mph74%29.57 "Hg10 mi
9:53 AM72 °FCloudy.3 mph81%29.57 "Hg10 mi
8:53 AM71 °FOvercast.3 mph84%29.57 "Hg10 mi
7:53 AM70 °FCloudy.5 mph87%29.57 "Hg10 mi
6:53 AM69 °FMostly cloudy.No wind90%29.57 "Hg10 mi
5:53 AM69 °FPassing clouds.No wind90%29.56 "Hg10 mi
4:53 AM70 °FPassing clouds.No wind87%29.55 "Hg10 mi
3:53 AM71 °FLight rain. Partly cloudy.No wind87%29.57 "Hg10 mi
3:03 AM70 °FMostly cloudy.No wind88%29.59 "Hg10 mi
2:53 AM70 °FMostly cloudy.3 mph90%29.59 "Hg10 mi
1:53 AM67 °FLight rain. Overcast.No wind90%29.60 "Hg10 mi
1:00 AM73 °FRain. Fog.8 mph94%29.67 "Hg1 mi
11:53 PM
Jul 27
75 °FLight rain. Fog.No wind90%29.67 "Hg6 mi
10:53 PM79 °FClear.No wind69%29.69 "Hg10 mi
9:53 PM78 °FClear.No wind64%29.69 "Hg10 mi
8:53 PM80 °FSunny.No wind60%29.68 "Hg10 mi
7:53 PM83 °FSunny.No wind53%29.68 "Hg10 mi
6:53 PM85 °FSunny.3 mph50%29.68 "Hg10 mi
5:53 PM87 °FSunny.6 mph48%29.69 "Hg10 mi
4:53 PM87 °FSunny.7 mph46%29.70 "Hg10 mi
3:53 PM85 °FScattered clouds.7 mph51%29.72 "Hg10 mi
2:53 PM83 °FScattered clouds.6 mph57%29.73 "Hg10 mi
1:53 PM83 °FScattered clouds.5 mph59%29.74 "Hg10 mi
12:53 PM80 °FBroken clouds.6 mph67%29.75 "Hg10 mi
Weather by CustomWeather, © 2014

See weather overviewHow to use our weather pages